Flag for United Kingdom Weather past 2 weeks in Plymouth, England, United Kingdom

Now
57 °F

Scattered showers. Scattered clouds.


Feels Like: 55 °F
Forecast: 57 / 64 °F
Wind: 12 mph from West

Location: Exeter Airport

Current Time: Jul 7, 2015 at 11:21:26 PM

Latest Report: Jul 7, 2015 at 10:20 PM


Visibility: N/A

Pressure: 29.83 "Hg

Humidity: 88%

Dew point: 54 °F

Location of PlymouthLocation

Historic Weather in Plymouth — Graph

°F

Plymouth temperature yesterday

Maximum temperature yesterday: 68 °F (at 3:50 PM)
Minimum temperature yesterday: 50 °F (at 5:20 AM)
Average temperature yesterday: 60 °F

Past Weeks' High & Low Weather Summary

 TemperatureHumidityPressure
High77 °F (Jun 30, 5:50 PM)100% (Jun 23, 1:20 AM)30.27 "Hg (Jun 23, 1:20 AM)
Low43 °F (Jun 24, 5:50 AM)46% (Jun 29, 4:20 PM)29.77 "Hg (Jul 1, 7:20 AM)
Average63 °F78%30.06 "Hg
* Reported Jun 22 9:20 PM — Jul 7 9:20 PM, Plymouth, Weather by CustomWeather, © 2015

Note: Actual official high and low records may vary slightly from our data, if they occured in-between our weather recording intervals... More about our weather records

Advertising

Plymouth weather history for previous 24 hours

 ConditionsComfort  
Time TempWeatherWind HumidityBarometerVisibility
9:20 PM
Tue, Jul 7
59 °FScattered showers. Scattered clouds.12 mph77%29.83 "HgN/A
8:50 PM59 °FScattered showers. Scattered clouds.15 mph77%29.83 "HgN/A
8:20 PM59 °FScattered clouds.14 mph82%29.83 "HgN/A
7:50 PM63 °FScattered clouds.17 mph64%29.83 "HgN/A
7:20 PM64 °FScattered clouds.17 mph56%29.83 "HgN/A
6:50 PM63 °FScattered clouds.16 mph59%29.83 "HgN/A
6:20 PM66 °FPassing clouds.17 mph56%29.83 "HgN/A
5:50 PM64 °FScattered clouds.18 mph56%29.83 "HgN/A
5:20 PM64 °FScattered clouds.18 mph60%29.83 "HgN/A
4:50 PM66 °FScattered clouds.20 mph56%29.83 "HgN/A
4:20 PM66 °FScattered clouds.18 mph56%29.83 "HgN/A
3:50 PM66 °FScattered clouds.16 mph56%29.83 "HgN/A
3:20 PM66 °FScattered clouds.17 mph56%29.83 "HgN/A
2:50 PM68 °FScattered clouds.17 mph53%29.83 "HgN/A
2:20 PM68 °FScattered clouds.22 mph53%29.83 "HgN/A
1:50 PM68 °FScattered clouds.18 mph53%29.83 "HgN/A
1:20 PM66 °FScattered clouds.20 mph56%29.80 "HgN/A
12:50 PM68 °FScattered clouds.17 mph56%29.80 "HgN/A
12:20 PM66 °FScattered clouds.13 mph64%29.83 "HgN/A
11:50 AM64 °FScattered clouds.13 mph68%29.83 "HgN/A
11:20 AM64 °FScattered clouds.13 mph73%29.80 "HgN/A
10:50 AM63 °FScattered clouds.13 mph77%29.80 "HgN/A
10:20 AM61 °FScattered clouds.9 mph88%29.80 "HgN/A
9:50 AM63 °FSprinkles. Scattered clouds.18 mph83%29.80 "HgN/A
9:20 AM63 °FScattered clouds.10 mph88%29.80 "HgN/A
8:50 AM61 °FScattered clouds.8 mph94%29.80 "HgN/A
8:20 AM61 °FScattered showers. Scattered clouds.8 mph94%29.80 "HgN/A
7:50 AM61 °FSprinkles. Scattered clouds.9 mph100%29.80 "Hg4 mi
7:20 AM61 °FScattered showers. Scattered clouds.7 mph100%29.80 "HgN/A
6:50 AM61 °FPassing clouds.3 mph94%29.80 "HgN/A
6:20 AM61 °FPassing clouds.8 mph94%29.80 "HgN/A
5:50 AM61 °FPassing clouds.10 mph100%29.80 "HgN/A
1:50 AM61 °FRain showers. Partly cloudy.14 mph100%29.89 "Hg4 mi
12:50 AM61 °FPassing clouds.12 mph100%29.89 "HgN/A
12:20 AM61 °FPassing clouds.14 mph94%29.92 "HgN/A
11:50 PM
Mon, Jul 6
61 °FPassing clouds.17 mph88%29.92 "HgN/A
11:20 PM61 °FPassing clouds.17 mph88%29.92 "HgN/A
Weather by CustomWeather, © 2015

See weather overviewHow to use our weather pages